Time,TemperatureF,DewpointF,PressureIn,WindDirection,WindDirectionDegrees,WindSpeedMPH,WindSpeedGustMPH,Humidity,HourlyPrecipIn,Conditions,Clouds,dailyrainin,SolarRadiationWatts/m^2,SoftwareType,DateUTC
2013-03-26 00:01:00,34.0,19.0,30.05,East,87,3.0,5.0,53,-99.99,,,-99.99,0.000000,,2013-03-26 06:01:00,
2013-03-26 00:11:00,33.0,19.0,30.05,East,84,4.0,6.0,56,-99.99,,,-99.99,-0.100000,,2013-03-26 06:11:00,
2013-03-26 00:21:00,34.0,19.0,30.05,East,96,4.0,5.0,53,-99.99,,,-99.99,0.100000,,2013-03-26 06:21:00,
2013-03-26 00:31:00,34.0,18.0,30.04,East,82,5.0,6.0,53,-99.99,,,-99.99,-0.200000,,2013-03-26 06:31:00,
2013-03-26 00:41:00,34.0,19.0,30.04,East,93,6.0,8.0,52,-99.99,,,-99.99,-0.100000,,2013-03-26 06:41:00,
2013-03-26 00:52:00,34.0,19.0,30.04,East,85,5.0,7.0,53,-99.99,,,-99.99,0.000000,,2013-03-26 06:52:00,
2013-03-26 01:02:00,33.0,19.0,30.03,East,88,6.0,7.0,55,-99.99,,,-99.99,0.000000,,2013-03-26 07:02:00,
2013-03-26 01:11:00,34.0,19.0,30.03,East,91,6.0,7.0,55,-99.99,,,-99.99,-0.100000,,2013-03-26 07:11:00,
2013-03-26 01:32:00,34.0,20.0,30.02,East,87,7.0,9.0,56,-99.99,,,-99.99,0.100000,,2013-03-26 07:32:00,
2013-03-26 01:41:00,33.0,20.0,30.02,ENE,74,7.0,10.0,58,-99.99,,,-99.99,0.000000,,2013-03-26 07:41:00,
2013-03-26 01:52:00,34.0,20.0,30.01,ENE,63,7.0,9.0,57,-99.99,,,-99.99,-0.200000,,2013-03-26 07:52:00,
2013-03-26 02:01:00,34.0,20.0,30.01,ENE,66,6.0,8.0,56,-99.99,,,-99.99,0.000000,,2013-03-26 08:01:00,
2013-03-26 02:12:00,34.0,21.0,30.01,NE,50,6.0,8.0,57,-99.99,,,-99.99,-0.100000,,2013-03-26 08:12:00,
2013-03-26 02:21:00,34.0,20.0,30.01,NE,47,5.0,9.0,55,-99.99,,,-99.99,0.100000,,2013-03-26 08:21:00,
2013-03-26 02:31:00,34.0,20.0,30.01,NE,41,4.0,6.0,57,-99.99,,,-99.99,-0.200000,,2013-03-26 08:31:00,
2013-03-26 02:41:00,33.0,21.0,30.01,NNE,25,5.0,6.0,59,-99.99,,,-99.99,-0.100000,,2013-03-26 08:41:00,
2013-03-26 02:51:00,32.0,22.0,30.00,NNE,13,6.0,7.0,64,-99.99,,,-99.99,0.100000,,2013-03-26 08:51:00,
2013-03-26 03:01:00,33.0,22.0,30.00,NNE,21,6.0,8.0,63,-99.99,,,-99.99,-0.100000,,2013-03-26 09:01:00,
2013-03-26 03:11:00,32.0,22.0,30.00,NNE,24,6.0,8.0,65,-99.99,,,-99.99,-0.100000,,2013-03-26 09:11:00,
2013-03-26 03:21:00,32.0,22.0,29.99,NNE,30,8.0,10.0,66,-99.99,,,-99.99,-0.100000,,2013-03-26 09:21:00,
2013-03-26 03:32:00,32.0,23.0,29.99,NNE,29,7.0,9.0,68,-99.99,,,-99.99,0.000000,,2013-03-26 09:32:00,
2013-03-26 03:42:00,32.0,23.0,29.99,NNE,30,6.0,8.0,70,-99.99,,,-99.99,-0.100000,,2013-03-26 09:42:00,
2013-03-26 03:51:00,32.0,24.0,29.99,NNE,28,6.0,9.0,71,-99.99,,,-99.99,-0.100000,,2013-03-26 09:51:00,
2013-03-26 04:02:00,31.0,24.0,29.99,NNE,28,6.0,8.0,72,-99.99,,,-99.99,-0.100000,,2013-03-26 10:02:00,
2013-03-26 04:12:00,31.0,24.0,29.98,NNE,18,6.0,8.0,72,-99.99,,,-99.99,0.300000,,2013-03-26 10:12:00,
2013-03-26 04:22:00,31.0,24.0,29.98,NNE,21,7.0,9.0,74,-99.99,,,-99.99,-0.300000,,2013-03-26 10:22:00,
2013-03-26 04:32:00,31.0,24.0,29.98,NNE,24,6.0,9.0,74,-99.99,,,-99.99,0.100000,,2013-03-26 10:32:00,
2013-03-26 04:42:00,31.0,24.0,29.98,NNE,25,7.0,10.0,73,-99.99,,,-99.99,0.000000,,2013-03-26 10:42:00,
2013-03-26 04:52:00,31.0,24.0,29.97,NNE,15,7.0,9.0,73,-99.99,,,-99.99,0.000000,,2013-03-26 10:52:00,
2013-03-26 05:02:00,31.0,23.0,29.98,NNE,16,6.0,8.0,71,-99.99,,,-99.99,-0.400000,,2013-03-26 11:02:00,
2013-03-26 05:11:00,31.0,23.0,29.98,NNE,18,6.0,9.0,70,-99.99,,,-99.99,0.000000,,2013-03-26 11:11:00,
2013-03-26 05:21:00,31.0,23.0,29.98,North,10,7.0,10.0,69,-99.99,,,-99.99,0.200000,,2013-03-26 11:21:00,
2013-03-26 05:32:00,31.0,23.0,29.98,North,9,8.0,11.0,70,-99.99,,,-99.99,0.000000,,2013-03-26 11:32:00,
2013-03-26 05:42:00,31.0,23.0,29.98,NNE,17,7.0,10.0,70,-99.99,,,-99.99,0.000000,,2013-03-26 11:42:00,
2013-03-26 05:51:00,31.0,23.0,29.98,NNE,26,7.0,9.0,69,-99.99,,,-99.99,0.000000,,2013-03-26 11:51:00,
2013-03-26 06:02:00,31.0,23.0,29.98,NNE,32,7.0,9.0,69,-99.99,,,-99.99,0.000000,,2013-03-26 12:02:00,
2013-03-26 06:11:00,31.0,23.0,29.98,NE,48,7.0,11.0,69,-99.99,,,-99.99,0.000000,,2013-03-26 12:11:00,
2013-03-26 06:21:00,31.0,23.0,29.98,NE,51,8.0,11.0,70,-99.99,,,-99.99,-0.100000,,2013-03-26 12:21:00,
2013-03-26 06:32:00,31.0,23.0,29.98,NE,52,6.0,9.0,71,-99.99,,,-99.99,0.000000,,2013-03-26 12:32:00,
2013-03-26 06:41:00,31.0,23.0,29.98,NE,51,9.0,11.0,71,-99.99,,,-99.99,0.000000,,2013-03-26 12:41:00,
2013-03-26 06:51:00,30.0,23.0,29.98,NNE,32,6.0,7.0,73,-99.99,,,-99.99,0.000000,,2013-03-26 12:51:00,
2013-03-26 07:02:00,30.0,22.0,29.98,NE,35,8.0,11.0,72,-99.99,,,-99.99,-0.100000,,2013-03-26 13:02:00,
2013-03-26 07:11:00,30.0,22.0,29.97,NNE,30,9.0,12.0,72,-99.99,,,-99.99,-0.100000,,2013-03-26 13:11:00,
2013-03-26 07:22:00,30.0,22.0,29.97,NNE,29,9.0,11.0,72,-99.99,,,-99.99,0.100000,,2013-03-26 13:22:00,
2013-03-26 07:32:00,30.0,22.0,29.97,NNE,32,9.0,13.0,71,-99.99,,,-99.99,0.600000,,2013-03-26 13:32:00,
2013-03-26 07:41:00,30.0,22.0,29.97,NNE,28,9.0,12.0,71,-99.99,,,-99.99,5.600000,,2013-03-26 13:41:00,
2013-03-26 07:52:00,31.0,23.0,29.97,NNE,25,9.0,12.0,73,-99.99,,,-99.99,18.799999,,2013-03-26 13:52:00,
2013-03-26 08:01:00,31.0,23.0,29.97,NNE,29,8.0,10.0,73,-99.99,,,-99.99,19.900000,,2013-03-26 14:01:00,
2013-03-26 08:11:00,31.0,23.0,29.97,NNE,26,8.0,13.0,73,-99.99,,,-99.99,26.400000,,2013-03-26 14:11:00,
2013-03-26 08:21:00,31.0,23.0,29.97,NNE,25,8.0,11.0,72,-99.99,,,-99.99,50.700001,,2013-03-26 14:21:00,
2013-03-26 08:32:00,31.0,24.0,29.98,NNE,27,10.0,15.0,75,-99.99,,,-99.99,66.400002,,2013-03-26 14:32:00,
2013-03-26 08:41:00,31.0,25.0,29.98,NNE,25,10.0,14.0,79,-99.99,,,-99.99,90.099998,,2013-03-26 14:41:00,
2013-03-26 08:51:00,31.0,25.0,29.98,NNE,27,9.0,12.0,78,-99.99,,,-99.99,108.500000,,2013-03-26 14:51:00,
2013-03-26 09:02:00,31.0,25.0,29.98,NNE,30,7.0,10.0,76,-99.99,,,-99.99,92.300003,,2013-03-26 15:02:00,
2013-03-26 09:11:00,32.0,25.0,29.98,NNE,23,8.0,11.0,73,-99.99,,,-99.99,100.599998,,2013-03-26 15:11:00,
2013-03-26 09:21:00,32.0,25.0,29.98,NE,38,8.0,11.0,75,-99.99,,,-99.99,157.500000,,2013-03-26 15:21:00,
2013-03-26 09:32:00,33.0,26.0,29.98,NE,36,9.0,12.0,76,-99.99,,,-99.99,238.699997,,2013-03-26 15:32:00,
2013-03-26 09:42:00,33.0,27.0,29.98,NE,38,9.0,12.0,75,-99.99,,,-99.99,153.300003,,2013-03-26 15:42:00,
2013-03-26 09:52:00,34.0,26.0,29.97,NE,38,10.0,13.0,74,-99.99,,,-99.99,230.500000,,2013-03-26 15:52:00,
2013-03-26 10:02:00,34.0,26.0,29.97,NNE,31,11.0,13.0,71,-99.99,,,-99.99,347.500000,,2013-03-26 16:02:00,
2013-03-26 10:12:00,35.0,26.0,29.97,NNE,27,9.0,13.0,71,-99.99,,,-99.99,326.899994,,2013-03-26 16:12:00,
2013-03-26 10:22:00,35.0,26.0,29.97,NNE,30,9.0,12.0,70,-99.99,,,-99.99,322.799988,,2013-03-26 16:22:00,
2013-03-26 10:32:00,35.0,26.0,29.97,NE,37,12.0,15.0,70,-99.99,,,-99.99,293.799988,,2013-03-26 16:32:00,
2013-03-26 10:42:00,36.0,27.0,29.97,NNE,24,8.0,11.0,71,-99.99,,,-99.99,334.399994,,2013-03-26 16:42:00,
2013-03-26 10:53:00,37.0,28.0,29.97,NNE,20,9.0,13.0,70,-99.99,,,-99.99,345.100006,,2013-03-26 16:53:00,
2013-03-26 11:02:00,37.0,28.0,29.98,North,5,7.0,12.0,70,-99.99,,,-99.99,308.500000,,2013-03-26 17:02:00,
2013-03-26 11:12:00,37.0,29.0,29.98,North,2,9.0,11.0,70,-99.99,,,-99.99,257.299988,,2013-03-26 17:12:00,
2013-03-26 11:22:00,38.0,29.0,29.98,North,357,9.0,12.0,70,-99.99,,,-99.99,271.799988,,2013-03-26 17:22:00,
2013-03-26 11:32:00,38.0,30.0,29.98,North,4,10.0,13.0,72,-99.99,,,-99.99,359.299988,,2013-03-26 17:32:00,
2013-03-26 11:41:00,38.0,30.0,29.98,North,3,10.0,13.0,72,-99.99,,,-99.99,479.600006,,2013-03-26 17:41:00,
2013-03-26 11:52:00,38.0,30.0,29.98,NNE,30,9.0,14.0,71,-99.99,,,-99.99,497.000000,,2013-03-26 17:52:00,
2013-03-26 12:02:00,38.0,30.0,29.98,North,11,7.0,10.0,71,-99.99,,,-99.99,357.799988,,2013-03-26 18:02:00,
2013-03-26 12:12:00,39.0,30.0,29.98,NNE,17,8.0,11.0,70,-99.99,,,-99.99,577.099976,,2013-03-26 18:12:00,
2013-03-26 12:22:00,40.0,30.0,29.98,NNE,31,6.0,9.0,68,-99.99,,,-99.99,536.799988,,2013-03-26 18:22:00,
2013-03-26 12:33:00,40.0,30.0,29.98,NNE,22,8.0,11.0,67,-99.99,,,-99.99,543.599976,,2013-03-26 18:33:00,
2013-03-26 12:41:00,41.0,30.0,29.97,NE,44,7.0,10.0,64,-99.99,,,-99.99,802.000000,,2013-03-26 18:41:00,
2013-03-26 12:52:00,42.0,31.0,29.97,NNE,24,7.0,12.0,64,-99.99,,,-99.99,856.000000,,2013-03-26 18:52:00,
2013-03-26 13:02:00,42.0,30.0,29.97,NE,39,8.0,11.0,61,-99.99,,,-99.99,768.900024,,2013-03-26 19:02:00,
2013-03-26 13:11:00,43.0,30.0,29.97,NE,42,6.0,12.0,60,-99.99,,,-99.99,867.000000,,2013-03-26 19:11:00,
2013-03-26 13:21:00,43.0,30.0,29.97,NNE,31,7.0,10.0,60,-99.99,,,-99.99,761.299988,,2013-03-26 19:21:00,
2013-03-26 13:32:00,44.0,31.0,29.97,NNE,12,6.0,10.0,60,-99.99,,,-99.99,889.000000,,2013-03-26 19:32:00,
2013-03-26 13:41:00,44.0,30.0,29.96,NNE,31,4.0,10.0,57,-99.99,,,-99.99,752.500000,,2013-03-26 19:41:00,
2013-03-26 13:52:00,44.0,30.0,29.97,NE,39,4.0,8.0,57,-99.99,,,-99.99,489.399994,,2013-03-26 19:52:00,
2013-03-26 14:01:00,45.0,31.0,29.96,North,355,4.0,8.0,58,-99.99,,,-99.99,593.299988,,2013-03-26 20:01:00,
2013-03-26 14:11:00,45.0,31.0,29.96,NW,314,4.0,6.0,56,-99.99,,,-99.99,489.500000,,2013-03-26 20:11:00,
2013-03-26 14:22:00,45.0,30.0,29.96,NE,34,4.0,6.0,55,-99.99,,,-99.99,415.700012,,2013-03-26 20:22:00,
2013-03-26 14:32:00,45.0,29.0,29.96,NE,48,2.0,4.0,53,-99.99,,,-99.99,421.799988,,2013-03-26 20:32:00,
2013-03-26 14:42:00,46.0,30.0,29.96,SSW,196,4.0,8.0,53,-99.99,,,-99.99,425.700012,,2013-03-26 20:42:00,
2013-03-26 14:52:00,46.0,28.0,29.96,SSW,210,6.0,10.0,49,-99.99,,,-99.99,412.700012,,2013-03-26 20:52:00,
2013-03-26 15:01:00,46.0,28.0,29.96,SSW,209,6.0,10.0,48,-99.99,,,-99.99,427.399994,,2013-03-26 21:01:00,
2013-03-26 15:11:00,46.0,26.0,29.96,SW,219,9.0,16.0,46,-99.99,,,-99.99,361.700012,,2013-03-26 21:11:00,
2013-03-26 15:21:00,45.0,28.0,29.96,WSW,242,9.0,13.0,49,-99.99,,,-99.99,309.899994,,2013-03-26 21:21:00,
2013-03-26 15:32:00,45.0,30.0,29.96,SSW,196,13.0,19.0,56,-99.99,,,-99.99,259.500000,,2013-03-26 21:32:00,
2013-03-26 15:42:00,43.0,33.0,29.97,SSW,198,12.0,17.0,66,-99.99,,,-99.99,216.100006,,2013-03-26 21:42:00,
2013-03-26 15:52:00,42.0,33.0,29.97,SSW,195,12.0,15.0,71,-99.99,,,-99.99,142.899994,,2013-03-26 21:52:00,
2013-03-26 16:01:00,40.0,34.0,29.98,SSW,201,8.0,12.0,78,-99.99,,,-99.99,117.699997,,2013-03-26 22:01:00,
2013-03-26 16:11:00,40.0,34.0,29.98,South,189,7.0,9.0,80,-99.99,,,-99.99,142.100006,,2013-03-26 22:11:00,
2013-03-26 16:22:00,40.0,35.0,29.98,SSW,199,6.0,8.0,82,-99.99,,,-99.99,130.800003,,2013-03-26 22:22:00,
2013-03-26 16:32:00,39.0,34.0,29.98,South,191,5.0,7.0,83,-99.99,,,-99.99,187.600006,,2013-03-26 22:32:00,
2013-03-26 16:41:00,39.0,34.0,29.98,SSW,213,4.0,6.0,83,-99.99,,,-99.99,217.800003,,2013-03-26 22:41:00,
2013-03-26 16:51:00,39.0,35.0,29.98,WSW,240,3.0,5.0,83,-99.99,,,-99.99,166.800003,,2013-03-26 22:51:00,
2013-03-26 17:00:00,39.0,34.0,29.98,SSW,212,3.0,6.0,82,-99.99,,,-99.99,131.600006,,2013-03-26 23:00:00,
2013-03-26 17:10:00,39.0,34.0,29.98,SSW,213,2.0,3.0,82,-99.99,,,-99.99,140.000000,,2013-03-26 23:10:00,
2013-03-26 17:21:00,40.0,34.0,29.98,South,176,1.0,2.0,79,-99.99,,,-99.99,186.100006,,2013-03-26 23:21:00,
2013-03-26 17:31:00,40.0,35.0,29.98,ESE,120,3.0,4.0,80,-99.99,,,-99.99,269.000000,,2013-03-26 23:31:00,
2013-03-26 17:42:00,40.0,34.0,29.98,ESE,117,2.0,3.0,78,-99.99,,,-99.99,192.899994,,2013-03-26 23:42:00,
2013-03-26 17:51:00,41.0,34.0,29.98,ESE,117,3.0,5.0,78,-99.99,,,-99.99,214.399994,,2013-03-26 23:51:00,
2013-03-26 18:01:00,41.0,35.0,29.98,SE,126,3.0,5.0,78,-99.99,,,-99.99,331.100006,,2013-03-27 00:01:00,
2013-03-26 18:11:00,42.0,35.0,29.98,ENE,76,3.0,4.0,77,-99.99,,,-99.99,323.399994,,2013-03-27 00:11:00,
2013-03-26 18:21:00,42.0,35.0,29.98,ESE,103,3.0,4.0,76,-99.99,,,-99.99,245.000000,,2013-03-27 00:21:00,
2013-03-26 18:32:00,42.0,35.0,29.97,East,96,3.0,4.0,75,-99.99,,,-99.99,141.699997,,2013-03-27 00:32:00,
2013-03-26 18:41:00,41.0,35.0,29.97,ENE,63,4.0,5.0,77,-99.99,,,-99.99,121.699997,,2013-03-27 00:41:00,
2013-03-26 18:51:00,41.0,35.0,29.97,ENE,72,4.0,6.0,78,-99.99,,,-99.99,130.800003,,2013-03-27 00:51:00,
2013-03-26 19:02:00,41.0,35.0,29.97,East,83,3.0,5.0,79,-99.99,,,-99.99,142.699997,,2013-03-27 01:02:00,
2013-03-26 19:11:00,42.0,36.0,29.97,ENE,68,4.0,4.0,79,-99.99,,,-99.99,148.500000,,2013-03-27 01:11:00,
2013-03-26 19:21:00,42.0,35.0,29.97,East,100,3.0,5.0,78,-99.99,,,-99.99,102.900002,,2013-03-27 01:21:00,
2013-03-26 19:32:00,41.0,35.0,29.97,East,80,3.0,5.0,78,-99.99,,,-99.99,63.099998,,2013-03-27 01:32:00,
2013-03-26 19:41:00,41.0,35.0,29.98,ENE,74,4.0,5.0,80,-99.99,,,-99.99,51.799999,,2013-03-27 01:41:00,
2013-03-26 19:52:00,40.0,35.0,29.98,ENE,68,5.0,5.0,81,-99.99,,,-99.99,19.200001,,2013-03-27 01:52:00,
2013-03-26 20:11:00,39.0,34.0,29.97,ENE,73,4.0,5.0,83,-99.99,,,-99.99,3.300000,,2013-03-27 02:11:00,
2013-03-26 20:21:00,38.0,34.0,29.97,ENE,60,4.0,4.0,85,-99.99,,,-99.99,0.900000,,2013-03-27 02:21:00,
2013-03-26 20:32:00,37.0,34.0,29.98,NE,40,2.0,3.0,88,-99.99,,,-99.99,0.300000,,2013-03-27 02:32:00,
2013-03-26 20:42:00,37.0,34.0,29.98,ENE,72,3.0,3.0,88,-99.99,,,-99.99,0.000000,,2013-03-27 02:42:00,
2013-03-26 20:52:00,36.0,33.0,29.98,NE,52,2.0,2.0,89,-99.99,,,-99.99,-0.100000,,2013-03-27 02:52:00,
2013-03-26 21:02:00,37.0,34.0,29.98,ENE,68,3.0,4.0,90,-99.99,,,-99.99,-0.100000,,2013-03-27 03:02:00,
2013-03-26 21:11:00,36.0,33.0,29.99,East,79,3.0,3.0,88,-99.99,,,-99.99,0.000000,,2013-03-27 03:11:00,
2013-03-26 21:21:00,35.0,33.0,29.99,ESE,112,2.0,2.0,91,-99.99,,,-99.99,0.000000,,2013-03-27 03:21:00,
2013-03-26 21:32:00,35.0,33.0,29.99,ESE,118,2.0,2.0,91,-99.99,,,-99.99,-0.100000,,2013-03-27 03:32:00,
2013-03-26 21:42:00,35.0,33.0,29.99,ESE,116,3.0,3.0,92,-99.99,,,-99.99,-0.300000,,2013-03-27 03:42:00,
2013-03-26 21:52:00,34.0,32.0,29.99,ESE,122,4.0,5.0,91,-99.99,,,-99.99,-0.200000,,2013-03-27 03:52:00,
2013-03-26 22:02:00,33.0,31.0,30.00,ESE,117,3.0,3.0,91,-99.99,,,-99.99,-0.100000,,2013-03-27 04:02:00,
2013-03-26 22:12:00,33.0,31.0,30.00,ESE,109,3.0,4.0,91,-99.99,,,-99.99,-0.100000,,2013-03-27 04:12:00,
2013-03-26 22:22:00,31.0,29.0,30.00,ESE,112,3.0,3.0,90,-99.99,,,-99.99,-0.100000,,2013-03-27 04:22:00,
2013-03-26 22:32:00,32.0,30.0,30.00,SE,124,3.0,3.0,92,-99.99,,,-99.99,0.000000,,2013-03-27 04:32:00,
2013-03-26 22:42:00,32.0,30.0,30.00,SE,124,2.0,3.0,91,-99.99,,,-99.99,0.000000,,2013-03-27 04:42:00,
2013-03-26 22:52:00,31.0,29.0,30.01,SE,145,3.0,4.0,91,-99.99,,,-99.99,-0.100000,,2013-03-27 04:52:00,
2013-03-26 23:02:00,31.0,29.0,30.01,SE,142,3.0,4.0,90,-99.99,,,-99.99,-0.100000,,2013-03-27 05:02:00,
2013-03-26 23:12:00,31.0,28.0,30.01,SE,135,3.0,4.0,90,-99.99,,,-99.99,-0.100000,,2013-03-27 05:12:00,
2013-03-26 23:22:00,31.0,29.0,30.00,SE,138,4.0,4.0,90,-99.99,,,-99.99,0.300000,,2013-03-27 05:22:00,
2013-03-26 23:32:00,32.0,29.0,30.00,SE,142,4.0,4.0,89,-99.99,,,-99.99,-0.200000,,2013-03-27 05:32:00,
2013-03-26 23:42:00,31.0,28.0,30.01,SSE,147,3.0,3.0,89,-99.99,,,-99.99,0.000000,,2013-03-27 05:42:00,
2013-03-26 23:52:00,32.0,29.0,30.01,SSE,148,3.0,3.0,88,-99.99,,,-99.99,0.000000,,2013-03-27 05:52:00,